Home > Time Zones > World Clock > Weather > Greece > Ilio > Past weeks

Flag for Greece Weather past 2 weeks in Ilio, Greece

Now
95 °F

Scattered clouds.


Feels Like: 91 °F
Forecast: 72 / 89 °F
Wind: 15 mph from Southwest

Location: Elefsis Airport

Current Time: Aug 1, 2014 at 3:25:21 PM

Latest Report: Aug 1, 2014 at 2:50 PM


Visibility: N/A

Pressure: 29.59 "Hg

Humidity: 19%

Dew point: 46 °F

Location of IlioLocation

Historic Weather in Ilio — Graph

°F

Ilio temperature yesterday

Maximum temperature yesterday: 91 °F (at 1:50 PM)
Minimum temperature yesterday: 75 °F (at 4:20 AM)
Average temperature yesterday: 84 °F

Past Weeks' High & Low Weather Summary

 TemperatureHumidityPressure
High97 °F (Jul 21, 2:50 PM)100% (Jul 28, 3:50 AM)32.46 "Hg (Jul 28, 3:50 AM)
Low57 °F (Jul 28, 3:50 AM)22% (Jul 21, 2:50 PM)29.59 "Hg (Jul 31, 6:50 PM)
Average83 °F47%29.80 "Hg
* Reported Jul 17 2:20 PM — Aug 1 2:20 PM, Ilio, Weather by CustomWeather, © 2014

Note: Actual official high and low records may vary slightly from our data, if they occured in-between our weather recording intervals... More about our weather records

Advertising

Ilio weather history for previous 24 hours

 ConditionsComfort  
Time TempWeatherWind HumidityBarometerVisibility
2:20 PM
Aug 1
93 °FScattered clouds.16 mph24%29.62 "HgN/A
1:50 PM93 °FScattered clouds.13 mph24%29.62 "HgN/A
1:20 PM91 °FScattered clouds.14 mph26%29.62 "HgN/A
12:50 PM91 °FScattered clouds.14 mph28%29.62 "HgN/A
12:20 PM91 °FPassing clouds.5 mph28%29.62 "HgN/A
11:50 AM90 °FPassing clouds.7 mph29%29.62 "HgN/A
11:20 AM90 °FPassing clouds.10 mph31%29.62 "HgN/A
10:50 AM88 °FPassing clouds.8 mph33%29.62 "HgN/A
10:20 AM88 °FPassing clouds.9 mph33%29.62 "HgN/A
9:50 AM88 °FPassing clouds.9 mph33%29.62 "HgN/A
9:20 AM86 °FSunny.9 mph33%29.62 "Hg10 mi
8:50 AM84 °FSunny.7 mph35%29.62 "Hg10 mi
8:20 AM84 °FSunny.7 mph35%29.62 "Hg10 mi
7:50 AM81 °FSunny.No wind42%29.62 "Hg10 mi
7:20 AM77 °FClear.5 mph51%29.62 "Hg10 mi
6:50 AM77 °FClear.5 mph51%29.62 "Hg10 mi
6:20 AM79 °FClear.6 mph48%29.62 "Hg10 mi
5:20 AM79 °FClear.12 mph51%29.62 "Hg10 mi
4:50 AM79 °FClear.12 mph51%29.62 "Hg10 mi
4:20 AM79 °FClear.12 mph51%29.62 "Hg10 mi
3:50 AM79 °FClear.12 mph51%29.62 "Hg10 mi
2:50 AM82 °FClear.No wind45%29.62 "Hg10 mi
1:50 AM82 °FClear.No wind45%29.62 "Hg10 mi
1:20 AM82 °FClear.No wind45%29.62 "Hg10 mi
12:50 AM82 °FClear.No wind45%29.62 "Hg10 mi
12:20 AM82 °FClear.No wind45%29.62 "Hg10 mi
11:50 PM
Jul 31
82 °FClear.No wind45%29.62 "Hg10 mi
11:20 PM84 °FClear.No wind55%29.59 "Hg10 mi
10:50 PM84 °FClear.No wind55%29.59 "Hg10 mi
10:20 PM84 °FClear.No wind55%29.59 "Hg10 mi
9:50 PM84 °FClear.No wind55%29.59 "Hg10 mi
9:20 PM84 °FSunny.No wind55%29.59 "Hg10 mi
8:50 PM84 °FSunny.No wind55%29.59 "Hg10 mi
8:20 PM84 °FSunny.7 mph51%29.59 "Hg10 mi
7:50 PM86 °FSunny.9 mph52%29.59 "Hg10 mi
7:20 PM86 °FSunny.9 mph52%29.59 "Hg10 mi
6:50 PM88 °FSunny.9 mph43%29.59 "Hg10 mi
6:20 PM88 °FSunny.9 mph46%29.62 "Hg10 mi
5:50 PM88 °FSunny.12 mph49%29.62 "Hg10 mi
5:20 PM90 °FSunny.12 mph43%29.62 "Hg10 mi
4:50 PM90 °FSunny.12 mph49%29.62 "Hg10 mi
4:20 PM90 °FSunny.12 mph49%29.62 "Hg10 mi
3:50 PM90 °FSunny.10 mph49%29.65 "Hg10 mi
3:20 PM91 °FSunny.12 mph44%29.65 "Hg10 mi
Weather by CustomWeather, © 2014

See weather overviewHow to use our weather pages